Palacios, TX

7:58 PM CDT on March 27, 2017 (GMT -0500)
Palacios Municipal

Weather History for KPSX - October, 2012

Change the Weather History Date:

Thursday, October 11, 2012

  Actual Average Record
Temperature  
Mean Temperature 81 °F -  
Max Temperature 87 °F 82 °F 91 °F (1950)
Min Temperature 75 °F 62 °F 43 °F (1990)
Cooling Degree Days 16    
Growing Degree Days 31 (Base 50)    
Moisture  
Dew Point 73 °F    
Average Humidity 78    
Maximum Humidity 91    
Minimum Humidity 61    
Precipitation  
Precipitation 0.00 in - - ()
Sea Level Pressure  
Sea Level Pressure 30.10 in    
Wind  
Wind Speed 9 mph (ESE)    
Max Wind Speed 17 mph    
Max Gust Speed 20 mph    
Visibility 9 miles    
Events      
Averages and records for this station are not official NWS values.
T = Trace of Precipitation, MM = Missing Value Source: NWS Daily Summary

Daily Weather History Graph

Daily Weather History Graph

Search for Another Location

Airport or City:

Trip Planner

Search our weather history database for the weather conditions in past years. The results will help you decide how hot, cold, wet, or windy it might be!

Date:

Astronomy

Oct. 11, 2012 Rise Set
Actual Time 7:23 AM CDT 6:58 PM CDT
Civil Twilight 7:00 AM CDT 7:22 PM CDT
Nautical Twilight 6:32 AM CDT 7:49 PM CDT
Astronomical Twilight 6:05 AM CDT 8:17 PM CDT
Moon 3:22 AM CDT (10/11) 4:20 PM CDT (10/11)
Length of Visible Light 12h 22m
Length of Day
11h 35m
Waning Crescent, 18% of the Moon is Illuminated
Oct 11
Waning Crescent
Oct 15
New
Oct 21
First Quarter
Oct 29
Full
Nov 6
Last Quarter

Hourly Weather History & Observations

Time (CDT) Temp. Heat Index Dew Point Humidity Pressure Visibility Wind Dir Wind Speed Gust Speed Precip Events Conditions
12:51 AM 78.8 °F - 73.4 °F 83% 30.08 in 10.0 mi ENE 8.1 mph - N/A   Overcast
1:33 AM 78.8 °F - 73.4 °F 83% 30.07 in 10.0 mi East 5.8 mph - N/A   Overcast
1:53 AM 78.1 °F - 73.9 °F 87% 30.07 in 9.0 mi ESE 6.9 mph - N/A   Overcast
2:03 AM 78.8 °F - 73.4 °F 83% 30.06 in 9.0 mi ESE 9.2 mph - N/A   Overcast
2:53 AM 79.0 °F - 75.0 °F 88% 30.06 in 8.0 mi SE 9.2 mph - N/A   Clear
3:53 AM 78.1 °F - 73.9 °F 87% 30.05 in 7.0 mi ESE 4.6 mph - N/A   Clear
4:53 AM 75.9 °F - 72.0 °F 87% 30.05 in 6.0 mi East 4.6 mph - N/A   Partly Cloudy
5:53 AM 75.9 °F - 73.0 °F 91% 30.06 in 7.0 mi East 3.5 mph - N/A   Scattered Clouds
6:53 AM 75.9 °F - 73.0 °F 91% 30.08 in 6.0 mi East 3.5 mph - N/A   Scattered Clouds
7:53 AM 77.0 °F - 73.0 °F 88% 30.10 in 7.0 mi SE 5.8 mph - N/A   Mostly Cloudy
8:53 AM 81.0 °F 86.7 °F 75.0 °F 82% 30.11 in 9.0 mi SE 9.2 mph - N/A   Clear
9:53 AM 84.0 °F 91.2 °F 73.9 °F 72% 30.14 in 10.0 mi SE 12.7 mph 19.6 mph N/A   Partly Cloudy
10:33 AM 84.2 °F 90.9 °F 73.4 °F 70% 30.14 in 10.0 mi SSE 15.0 mph 19.6 mph N/A   Mostly Cloudy
10:50 AM 86.0 °F 91.8 °F 71.6 °F 62% 30.14 in 10.0 mi SSE 15.0 mph - N/A   Scattered Clouds
10:53 AM 86.0 °F 92.2 °F 72.0 °F 63% 30.14 in 10.0 mi SSE 12.7 mph - N/A   Scattered Clouds
11:53 AM 87.1 °F 93.6 °F 72.0 °F 61% 30.14 in 10.0 mi SSE 17.3 mph - N/A   Partly Cloudy
12:53 PM 87.1 °F 94.5 °F 73.0 °F 63% 30.12 in 10.0 mi SE 17.3 mph - N/A   Scattered Clouds
1:53 PM 84.0 °F 89.6 °F 72.0 °F 67% 30.11 in 10.0 mi SSE 12.7 mph - N/A   Clear
2:53 PM 84.0 °F 91.2 °F 73.9 °F 72% 30.10 in 10.0 mi SSE 10.4 mph - N/A   Scattered Clouds
3:15 PM 84.2 °F 90.9 °F 73.4 °F 70% 30.10 in 10.0 mi SSE 12.7 mph - N/A   Mostly Cloudy
3:43 PM 84.2 °F 90.9 °F 73.4 °F 70% 30.10 in 10.0 mi SE 12.7 mph - N/A   Mostly Cloudy
3:53 PM 84.0 °F 90.2 °F 73.0 °F 69% 30.09 in 10.0 mi SE 16.1 mph - N/A   Mostly Cloudy
4:53 PM 82.4 °F 87.2 °F 71.6 °F 70% 30.09 in 10.0 mi SE 12.7 mph - N/A   Partly Cloudy
5:53 PM 82.9 °F 88.8 °F 73.0 °F 72% 30.08 in 10.0 mi SE 10.4 mph - N/A   Scattered Clouds
6:53 PM 81.0 °F 85.8 °F 73.0 °F 77% 30.09 in 10.0 mi SE 10.4 mph - N/A   Partly Cloudy
7:53 PM 80.1 °F 84.2 °F 73.0 °F 79% 30.09 in 10.0 mi ESE 9.2 mph - N/A   Clear
8:53 PM 79.0 °F - 72.0 °F 79% 30.10 in 10.0 mi ESE 8.1 mph - N/A   Clear
9:53 PM 78.1 °F - 73.0 °F 84% 30.12 in 10.0 mi ESE 6.9 mph - N/A   Clear
10:53 PM 77.0 °F - 73.0 °F 88% 30.12 in 9.0 mi ENE 4.6 mph - N/A   Clear
11:53 PM 75.0 °F - 72.0 °F 90% 30.12 in 7.0 mi East 5.8 mph - N/A   Clear